Flag for China Weather past 2 weeks in Changchun, Jilin, China

Now
61 °F

Fog.


Feels Like: 61 °F
Forecast: 48 / 60 °F
Wind: 6 mph from Southwest

Location: Changchun Airport

Current Time: Oct 24, 2014 at 11:32:23 PM

Latest Report: Oct 24, 2014 at 11:00 PM


Visibility: 1 mi

Pressure: 29.83 "Hg

Humidity: 68%

Dew point: 50 °F

Location of ChangchunLocation

Historic Weather in Changchun — Graph

°F

Changchun temperature yesterday

Maximum temperature yesterday: 61 °F (at 12:00 PM)
Minimum temperature yesterday: 37 °F (at 12:00 AM)
Average temperature yesterday: 51 °F

Past Weeks' High & Low Weather Summary

 TemperatureHumidityPressure
High77 °F (Oct 11, 2:00 PM)100% (Oct 10, 2:00 AM)30.42 "Hg (Oct 10, 2:00 AM)
Low18 °F (Oct 21, 5:00 AM)11% (Oct 20, 3:00 PM)29.68 "Hg (Oct 15, 2:00 PM)
Average48 °F46%30.09 "Hg
* Reported Oct 9 10:00 PM — Oct 24 10:00 PM, Changchun, Weather by CustomWeather, © 2014

Note: Actual official high and low records may vary slightly from our data, if they occured in-between our weather recording intervals... More about our weather records

Advertising

Changchun weather history for previous 24 hours

 ConditionsComfort  
Time TempWeatherWind HumidityBarometerVisibility
10:00 PM
Oct 24
63 °FFog.8 mph64%29.83 "Hg1 mi
9:00 PM63 °FFog.10 mph64%29.83 "Hg1 mi
8:00 PM64 °FFog.13 mph60%29.80 "Hg2 mi
7:00 PM64 °FFog.15 mph60%29.80 "Hg2 mi
6:00 PM64 °FOvercast.15 mph56%29.77 "Hg2 mi
5:00 PM66 °FOvercast.13 mph52%29.74 "Hg1 mi
4:00 PM66 °FOvercast.17 mph52%29.74 "Hg1 mi
3:00 PM66 °FOvercast.22 mph52%29.74 "Hg1 mi
2:00 PM68 °FOvercast.24 mph49%29.74 "Hg1 mi
1:00 PM68 °FOvercast.20 mph49%29.74 "Hg1 mi
12:00 PM64 °FOvercast.15 mph56%29.77 "Hg2 mi
11:00 AM61 °FOvercast.13 mph59%29.80 "Hg2 mi
10:00 AM61 °FPartly sunny.15 mph59%29.80 "Hg1 mi
9:00 AM61 °FFog.15 mph59%29.83 "Hg1 mi
8:00 AM59 °FFog.13 mph59%29.83 "Hg1 mi
7:00 AM57 °FFog.8 mph63%29.83 "Hg2 mi
6:00 AM55 °FFog.8 mph63%29.83 "Hg2 mi
5:00 AM57 °FPassing clouds.10 mph59%29.86 "Hg4 mi
4:00 AM57 °FPassing clouds.13 mph59%29.86 "Hg4 mi
3:00 AM55 °FFog.10 mph63%29.86 "Hg3 mi
2:00 AM55 °FFog.13 mph63%29.89 "Hg2 mi
1:00 AM55 °FFog.8 mph59%29.89 "Hg2 mi
12:00 AM55 °FPassing clouds.8 mph59%29.89 "Hg2 mi
11:00 PM
Oct 23
54 °FPassing clouds.8 mph63%29.89 "Hg2 mi
Weather by CustomWeather, © 2014

See weather overviewHow to use our weather pages